Weather History for Laredo, TX

Change the Weather History Date:

Thursday, February 23, 2012

  Actual Average Record
Temperature  
Mean Temperature 73 °F 63 °F  
Max Temperature 84 °F 74 °F 97 °F (1909)
Min Temperature 61 °F 52 °F 25 °F (1976)
Degree Days  
Heating Degree Days 0 5  
Month to date heating degree days 133 144  
Since 1 July heating degree days 616 823  
Cooling Degree Days 8 3  
Month to date cooling degree days 51 43  
Year to date cooling degree days 94 71  
Growing Degree Days 22 (Base 50)    
Moisture  
Dew Point 66 °F    
Average Humidity 88    
Maximum Humidity 100    
Minimum Humidity 62    
Precipitation  
Precipitation 0.00 in 0.03 in 1.65 in (1923)
Month to date precipitation 0.30 0.75  
Year to date precipitation 0.32 1.65  
Sea Level Pressure  
Sea Level Pressure 29.68 in    
Wind  
Wind Speed 6 mph (South)    
Max Wind Speed 14 mph    
Max Gust Speed 15 mph    
Visibility 4 miles    
Events Fog , Rain    
T = Trace of Precipitation, MM = Missing Value Source: NWS Daily Summary

Daily Weather History Graph

Daily Weather History Graph

Search for Another Location

Airport:

Trip Planner

Search our weather history database for the weather conditions in past years. The results will help you decide how hot, cold, wet, or windy it might be!

Date:

Astronomy

Feb. 23, 2012 Rise Set
Actual Time 7:08 AM CST 6:34 PM CST
Civil Twilight 6:44 AM CST 6:58 PM CST
Nautical Twilight 6:17 AM CST 7:25 PM CST
Astronomical Twilight 5:50 AM CST 7:52 PM CST
Moon 7:50 AM CST (2/23) 8:24 PM CST (2/23)
Length of Visible Light 12h 13m
Length of Day
11h 26m
Waxing Crescent, 3% of the Moon is Illuminated
Feb 23
Waxing Crescent
Feb 29
First Quarter
Mar 8
Full
Mar 14
Last Quarter
Mar 22
New

Hourly Weather History & Observations

Time (CST) Temp. Heat Index Dew Point Humidity Pressure Visibility Wind Dir Wind Speed Gust Speed Precip Events Conditions
12:56 AM 65.8 °F - 61.9 °F 87% 29.72 in 10.0 mi SSE 6.9 mph - N/A   Clear
1:56 AM 68.0 °F - 63.9 °F 87% 29.70 in 8.0 mi SSE 8.1 mph - N/A   Clear
2:56 AM 68.0 °F - 64.9 °F 90% 29.68 in 5.0 mi South 8.1 mph - N/A   Clear
3:56 AM 65.8 °F - 64.9 °F 97% 29.67 in 4.0 mi SSE 3.5 mph - N/A   Clear
4:47 AM 64.4 °F - 64.4 °F 100% 29.69 in 2.5 mi SE 5.8 mph - N/A   Clear
4:56 AM 64.9 °F - 63.9 °F 96% 29.66 in 2.5 mi SSE 4.6 mph - N/A   Clear
5:19 AM 64.4 °F - 64.4 °F 100% 29.70 in 1.8 mi Calm Calm - N/A   Clear
5:56 AM 64.9 °F - 63.9 °F 96% 29.66 in 1.5 mi SSE 4.6 mph - N/A   Clear
6:22 AM 64.4 °F - 64.4 °F 100% 29.70 in 1.0 mi SE 3.5 mph - N/A   Clear
6:42 AM 64.4 °F - 64.4 °F 100% 29.70 in 0.8 mi Calm Calm - N/A   Clear
6:47 AM 64.4 °F - 64.4 °F 100% 29.70 in 0.2 mi South 3.5 mph - N/A Fog Fog
6:56 AM 63.9 °F - 63.9 °F 100% 29.68 in 0.2 mi SSE 3.5 mph - N/A Fog Fog
7:27 AM 62.6 °F - 62.6 °F 100% 29.71 in 0.5 mi Calm Calm - N/A Fog Fog
7:34 AM 62.6 °F - 62.6 °F 100% 29.71 in 0.5 mi West 3.5 mph - N/A Fog Fog
7:56 AM 65.8 °F - 65.8 °F 100% 29.69 in 0.5 mi West 3.5 mph - N/A Fog Fog
8:04 AM 66.2 °F - 66.2 °F 100% 29.72 in 0.2 mi Calm Calm - N/A Fog Fog
8:56 AM 66.9 °F - 66.9 °F 100% 29.71 in 0.2 mi WSW 3.5 mph - N/A Fog Fog
9:40 AM 68.0 °F - 68.0 °F 100% 29.75 in 0.5 mi Calm Calm - N/A Fog Fog
9:43 AM 68.0 °F - 68.0 °F 100% 29.75 in 1.0 mi Variable 3.5 mph - N/A   Overcast
9:48 AM 69.8 °F - 69.8 °F 100% 29.74 in 2.5 mi Variable 3.5 mph - N/A   Scattered Clouds
9:56 AM 70.0 °F - 70.0 °F 100% 29.72 in 2.0 mi SSW 4.6 mph - N/A   Scattered Clouds
10:03 AM 71.6 °F - 69.8 °F 94% 29.74 in 5.0 mi Calm Calm - N/A   Scattered Clouds
10:56 AM 79.9 °F - 66.9 °F 64% 29.70 in 5.0 mi WSW 8.1 mph - N/A   Haze
11:56 AM 81.0 °F 83.3 °F 66.9 °F 62% 29.68 in 8.0 mi South 5.8 mph - N/A   Clear
12:56 PM 81.9 °F 84.8 °F 68.0 °F 63% 29.66 in 8.0 mi South 5.8 mph - 0.00 in Rain Light Rain
1:56 PM 81.9 °F 84.2 °F 66.9 °F 60% 29.63 in 10.0 mi South 8.1 mph - 0.00 in   Haze
2:56 PM 82.9 °F 85.8 °F 68.0 °F 60% 29.60 in 9.0 mi Calm Calm - N/A   Clear
3:56 PM 81.9 °F 84.8 °F 68.0 °F 63% 29.59 in 10.0 mi South 3.5 mph - N/A   Clear
4:56 PM 81.0 °F 83.8 °F 68.0 °F 65% 29.58 in 10.0 mi SSE 8.1 mph - N/A   Clear
5:56 PM 77.9 °F - 66.9 °F 69% 29.59 in 9.0 mi South 4.6 mph - N/A   Clear
6:56 PM 74.8 °F - 66.9 °F 76% 29.60 in 9.0 mi South 5.8 mph - N/A   Clear
7:56 PM 72.0 °F - 66.9 °F 84% 29.62 in 7.0 mi South 9.2 mph - N/A   Clear
8:56 PM 70.9 °F - 65.8 °F 84% 29.62 in 6.0 mi South 9.2 mph - N/A   Clear
9:56 PM 70.0 °F - 65.8 °F 87% 29.65 in 5.0 mi South 10.4 mph - N/A   Clear
10:56 PM 68.9 °F - 65.8 °F 90% 29.66 in 4.0 mi SSE 6.9 mph - N/A   Clear
11:56 PM 68.0 °F - 65.8 °F 93% 29.65 in 4.0 mi ESE 5.8 mph - N/A   Clear